Regional Weather Roundup
Issued by NWS

Home | Current Version | Previous Version | Graphics & Text | Print | Product List | Glossary On
Versions: 1 2 3 4 5 6 7 8 9 10 11 12 13 14 15 16 17 18 19 20 21 22 23 24 25 26 27 28 29 30 31 32 33 34 35 36 37 38 39 40 41 42 43 44 45 46 47 48 49 50
000
ASUS43 KDMX 220207
RWRIA

WEATHER ROUNDUP FOR IOWA
NATIONAL WEATHER SERVICE DES MOINES IA
800 PM CST FRI NOV 21 2014

NOTE: "FAIR" INDICATES FEW OR NO CLOUDS BELOW 12,000 FEET WITH NO
SIGNIFICANT WEATHER AND/OR OBSTRUCTIONS TO VISIBILITY.

* - THESE STATIONS ARE NOT NWS STATIONS...THUS NOT UNDER NWS
QUALITY CONTROL.  THEY ALSO DO NOT REPORT WEATHER SUCH
AS PRECIPITATION OR FOG.

IAZ001>003-012>014-020>022-031>034-043>046-220300-
   NORTHWEST IOWA

CITY           SKY/WX    TMP DP  RH WIND       PRES   REMARKS
CARROLL *      CLOUDY    34  32  93 S15       30.03S WCI  24
CHEROKEE *     MOCLDY    34  30  86 S15       29.96F WCI  24
DENISON *      CLOUDY    36  32  87 S15G22    29.99F WCI  26
LE MARS *      CLEAR     34  28  80 S16G24    29.94R WCI  23
ORANGE CITY *  CLEAR     34  28  80 S14       29.93R WCI  24
SHELDON *      PTCLDY    32  27  80 S16       29.91F WCI  21
SIOUX CITY     MOCLDY    36  27  69 S16       29.96F WCI  26
SPENCER        MOCLDY    33  27  78 S18       29.93F WCI  22
STORM LAKE *   MOCLDY    34  30  86 S21       29.97F WCI  22
$$

IAZ055>058-069>071-079>083-090>094-220300-
   SOUTHWEST IOWA

CITY           SKY/WX    TMP DP  RH WIND       PRES   REMARKS
ATLANTIC *     CLOUDY    36  30  80 S12G17    30.05F WCI  27
AUDUBON *      CLEAR     36  28  75 S10G16    30.04F WCI  28
CLARINDA *     CLOUDY    36  32  87 SE8       30.08F WCI  29
COUNCIL BLFS * CLOUDY    36  36 100 S13       30.03S FOG     WCI  27
CRESTON *      CLOUDY    34  30  86 S12       30.07F WCI  25
HARLAN  *      CLOUDY    36  32  87 S14       30.07F WCI  27
LAMONI         CLOUDY    35  29  78 SE8       30.08F WCI  29
RED OAK *      CLOUDY    36  32  87 S9        30.06F WCI  29
SHENANDOAH *   CLOUDY    36  32  87 S7        30.07F WCI  30
$$

IAZ047>049-059>061-072>074-084-220300-
   CENTRAL IOWA

CITY           SKY/WX    TMP DP  RH WIND       PRES   REMARKS
AMES           CLOUDY    35  27  72 S10       30.08F WCI  27
ANKENY *       CLOUDY    36  25  64 S12       30.09F WCI  27
CHARITON *     LGT RAIN  34  30  86 S9        30.09F WCI  26
DES MOINES     CLOUDY    37  26  64 S10       30.09F WCI  30
GRINNELL*      CLOUDY    34  23  64 S14       30.10F WCI  24
KNOXVILLE *    MIX PCPN  34  27  75 S8        30.09F WCI  27
MARSHALLTOWN   CLOUDY    33  23  66 S13       30.07F WCI  24
PELLA *        LGT RAIN  34  27  75 S9        30.12S WCI  26
PERRY *        CLOUDY    36  30  80 S10       30.06F WCI  28
$$

IAZ004>006-015-016-023>025-035-036-220300-
   NORTH CENTRAL IOWA

CITY           SKY/WX    TMP DP  RH WIND       PRES   REMARKS
ALGONA *       CLOUDY    34  30  86 S25       29.97F WCI  21
CLARION *      CLOUDY    32  28  86 S15       30.02F WCI  22
ESTHERVILLE    MOCLDY    29  25  85 S21       29.92F WCI  16
FORT DODGE *   CLOUDY    36  27  69 S16G22    30.03F WCI  26
MASON CITY     CLOUDY    31  25  78 S23       30.02F WCI  18
FOREST CITY *  CLOUDY    32  28  86 S17       30.00F WCI  21
IOWA FALLS *   CLOUDY    32  25  74 S12       30.06F WCI  23
$$

IAZ007>011-017>019-026>030-037>042-050>054-066-220300-
   NORTHEAST IOWA

CITY           SKY/WX    TMP DP  RH WIND       PRES   REMARKS
CEDAR RAPIDS   CLOUDY    33  19  56 S14       30.12F WCI  23
CHARLES CITY * CLOUDY    32  23  69 S15G23    30.05F WCI  22
CLINTON *      CLOUDY    34  10  37 S12       30.21F WCI  25
DECORAH *      CLOUDY    30  18  59 S12G18    30.07S WCI  21
DUBUQUE        CLOUDY    30  14  51 S14       30.13F WCI  19
MONTICELLO *   CLOUDY    32  16  51 S12G18    30.14F WCI  23
OELWEIN *      CLOUDY    30  21  69 S12       30.10F WCI  21
WATERLOO       CLOUDY    32  22  66 S13       30.09F WCI  22
$$

IAZ064-065-067-068-078-220300-
   EAST CENTRAL IOWA

CITY           SKY/WX    TMP DP  RH WIND       PRES   REMARKS
DAVENPORT      CLOUDY    34  10  37 S15       30.17F WCI  24
IOWA CITY      CLOUDY    35  18  49 S10       30.17F WCI  27
MT. PLEASANT * CLOUDY    34  21  60 S13       30.16F WCI  25
MUSCATINE *    CLOUDY    37  16  41 S13G20    30.18F WCI  29
QUAD CITIES    CLOUDY    35  12  38 SE8       30.18F WCI  29
$$

IAZ062-063-075>077-085>089-095>099-220300-
   SOUTHEAST IOWA

CITY           SKY/WX    TMP DP  RH WIND       PRES   REMARKS
BURLINGTON     CLOUDY    36  23  59 S14       30.17F WCI  27
FAIRFIELD *    CLOUDY    36  21  55 SE13G20   30.14F WCI  27
FORT MADISON * DRIZZLE   37  25  60 S13       30.17F WCI  29
KEOKUK *       CLOUDY    37  23  56 SE10      30.16F WCI  30
OSKALOOSA *    CLOUDY    34  25  69 S10       30.12F WCI  26
CENTERVILLE *  CLOUDY    36  25  64 SE8       30.12S WCI  29
OTTUMWA        CLOUDY    35  22  58 S14       30.12S WCI  26
WASHINGTON *   CLOUDY    36  21  55 S14G22    30.14F WCI  27
$$

ABBREVIATIONS USED IN REMARKS
   TC - TEMPERATURES IN CELSIUS
  WCI - WIND CHILL INDEX
   HX - HEAT INDEX
  VSB - VISIBILITY
$$




USA.gov is the U.S. government's official web portal to all federal, state and local government web resources and services.